RH
66 67 70 75 77 76 75 74 75 75 75 76 76 77 78 79 79 79 80 79 79 79 79 78 77 77 77 76 76 75 74 75 74 73 74 78 82 83 84 90 95 94
65 66 69 72 73 72 72 72 74 75 75 77 77 77 77 77 77 78 79 79 80 80 81 81 81 79 78 78 77 77 76 76 74 69 66 67 75 82 80 81 87 91
65 67 68 70 70 71 73 73 74 75 75 77 76 77 77 77 78 79 82 84 85 87 88 87 87 85 83 82 81 80 78 77 74 70 67 64 68 77 79 76 78 84
67 69 70 71 73 73 74 74 75 76 77 78 78 79 80 80 82 83 84 87 89 92 93 92 91 88 86 83 82 81 79 78 77 75 74 70 69 72 72 71 71 75
68 70 71 73 74 76 77 77 78 79 79 80 81 83 85 85 86 86 85 86 89 94 96 96 96 94 92 89 85 82 80 79 77 75 74 73 72 71 69 68 67 67
68 70 71 73 75 77 79 79 80 81 82 83 85 86 89 90 90 89 88 88 91 96 100 100 100 99 98 96 93 89 84 82 80 78 77 75 73 71 69 68 65 63
69 70 70 73 76 78 81 81 81 83 84 86 88 89 92 94 93 92 92 93 94 97 100 101 101 101 100 99 98 96 93 89 86 84 84 82 79 77 74 71 68 67
69 70 70 73 76 78 80 82 83 84 86 88 90 92 95 96 95 94 95 96 95 96 97 99 100 101 100 100 99 98 97 95 91 88 87 84 82 81 79 77 74 71
70 70 71 74 75 76 78 80 82 84 87 90 91 92 95 97 97 97 97 98 97 96 97 99 100 101 100 100 99 98 98 96 94 91 90 88 86 83 82 82 80 77
71 71 73 75 76 77 78 79 82 84 87 90 90 90 93 96 97 98 98 99 98 98 98 98 100 100 100 100 100 100 99 97 96 94 92 91 89 87 87 86 86 85
72 72 74 76 77 79 79 80 81 83 86 88 88 88 91 94 97 98 99 99 98 98 98 99 100 100 100 100 100 100 100 100 99 98 97 95 92 91 90 90 89 89
74 74 75 77 78 79 79 79 80 82 85 88 88 88 89 93 97 99 100 100 99 98 98 99 100 100 100 101 100 100 100 100 100 100 100 99 98 96 94 93 91 89
76 76 77 78 80 80 80 80 80 81 84 88 89 88 89 92 95 98 100 100 100 99 99 100 99 99 99 100 100 100 100 100 100 100 100 100 99 98 96 95 93 91
77 79 81 82 83 84 84 82 80 79 82 86 89 89 90 93 94 96 99 101 101 101 100 101 99 97 98 100 100 100 100 100 100 100 100 100 99 97 96 97 95 92
78 81 84 85 86 85 85 83 81 79 80 84 88 89 91 93 94 95 98 99 101 101 101 101 97 93 96 101 100 99 99 100 100 100 100 100 99 98 97 97 95 93
79 82 85 86 86 85 84 83 81 78 78 82 87 90 91 93 92 93 97 98 99 99 98 98 93 90 96 101 100 99 99 99 100 99 99 100 99 99 99 98 97 96
80 82 84 86 86 86 84 83 80 77 77 82 87 89 91 91 91 92 95 97 97 96 96 94 91 91 97 101 100 100 100 99 100 100 99 100 100 99 99 98 98 99
81 82 85 86 87 86 84 82 80 77 78 83 86 88 89 88 90 93 94 95 96 96 94 92 92 94 99 101 99 100 100 99 100 100 99 99 100 99 99 99 100 100
80 82 85 87 87 86 84 83 82 79 80 85 87 88 87 87 90 93 94 95 96 95 94 93 95 98 100 100 100 100 100 100 99 100 100 100 100 100 100 100 100 100
81 82 84 86 86 86 86 85 84 81 82 87 89 88 87 88 90 92 93 94 95 96 96 95 97 100 100 100 100 100 100 100 100 100 100 99 100 100 100 100 100 100
83 83 84 85 85 87 88 87 86 82 83 89 92 89 89 89 90 92 92 92 95 100 99 95 96 100 101 99 100 100 99 100 100 100 100 99 99 99 99 99 99 100
85 85 85 85 86 88 88 88 87 84 85 92 92 90 91 91 90 92 92 91 96 101 100 95 94 99 101 100 100 100 100 100 100 98 95 92 94 98 99 99 99 100
87 88 87 86 87 88 89 89 89 87 89 94 94 92 93 93 93 94 94 94 98 101 100 96 93 97 101 100 99 100 100 99 99 96 90 86 88 93 96 97 99 99
88 89 89 88 87 88 90 92 91 90 93 96 97 96 96 97 98 97 97 98 99 100 101 98 94 95 100 100 99 100 100 99 99 98 95 92 91 91 92 94 98 99
90 91 91 90 89 90 92 94 93 92 95 98 99 100 99 99 101 101 99 99 100 100 101 100 97 97 100 101 99 99 100 99 100 100 99 99 98 97 97 97 99 100
90 91 91 90 92 92 92 94 95 96 98 99 99 100 99 98 101 102 100 100 101 101 100 100 100 100 100 100 99 100 100 100 100 100 99 99 100 99 100 100 99 100
Wind_Speed
16 14 11 12 15 18 20 21 21 22 23 23 24 25 25 25 25 25 25 25 25 26 26 26 26 26 26 26 26 26 28 28 29 29 29 29 28 29 30 28 25 23
16 14 13 15 17 19 20 19 20 21 22 23 24 25 25 25 26 26 26 26 26 27 27 27 26 26 27 27 27 27 28 29 30 30 30 31 30 30 31 31 29 26
16 15 15 16 18 18 18 18 19 19 21 22 23 24 25 25 26 26 25 26 26 26 26 26 26 27 27 27 26 27 27 28 28 28 28 31 31 32 33 33 32 30
16 16 16 16 17 18 18 18 18 18 20 22 22 22 24 24 25 25 25 25 26 26 26 26 26 26 26 26 26 26 27 27 27 26 27 28 29 31 34 34 35 34
17 17 17 17 17 17 17 17 17 18 19 20 21 21 23 24 25 25 25 25 25 25 25 25 25 25 25 26 26 27 27 28 27 27 27 28 27 29 31 33 36 37
17 18 18 18 18 18 17 16 16 17 18 20 21 22 23 24 24 24 24 24 24 24 24 24 24 25 25 25 25 26 26 27 27 27 27 28 28 28 28 30 33 36
19 19 19 18 17 17 16 16 16 17 19 21 21 21 22 23 23 23 23 23 23 23 24 24 24 24 24 24 25 26 26 26 27 26 27 27 27 28 27 28 30 32
20 20 19 18 17 16 16 17 18 19 20 21 22 21 21 22 22 22 22 22 22 23 23 24 24 24 24 25 26 27 27 28 28 28 28 28 28 29 28 28 29 31
20 20 19 18 17 16 17 18 19 19 20 21 22 22 21 21 21 21 21 21 22 22 23 23 24 24 24 25 26 26 27 28 28 29 30 30 30 31 30 29 30 31
20 19 19 18 18 18 18 19 19 20 20 21 21 22 21 21 20 20 21 21 22 22 22 22 23 22 23 24 25 26 27 28 28 28 29 30 31 31 32 32 31 31
19 19 19 19 19 20 20 19 19 20 20 20 21 21 21 21 21 21 20 21 22 22 21 21 22 22 22 23 23 24 26 27 28 29 29 29 30 30 31 32 32 32
19 19 19 19 20 21 21 20 20 20 20 20 20 21 21 21 21 21 21 21 21 21 21 20 20 20 21 22 22 22 23 25 26 28 30 30 30 30 30 30 31 31
18 18 18 19 20 21 21 21 21 21 21 20 20 20 20 21 21 21 21 21 20 20 19 19 19 19 20 21 22 21 22 23 24 25 27 28 29 30 30 30 31 30
18 18 19 20 21 21 21 21 20 20 20 20 19 19 19 20 21 21 20 20 19 18 17 17 18 19 20 21 21 21 20 21 22 22 23 25 26 27 28 29 30 30
18 19 19 20 20 21 21 22 21 20 20 19 19 18 19 20 21 21 20 20 18 17 16 16 18 19 20 20 21 20 19 19 20 21 22 23 24 24 25 26 26 27
19 19 19 20 21 21 22 22 21 20 19 19 18 18 18 19 20 19 19 19 18 17 17 17 18 19 20 19 18 18 20 21 22 22 23 23 24 25 25 25 24 25
19 19 20 21 21 22 22 21 21 20 19 18 18 18 18 18 18 18 18 17 17 17 17 18 19 19 18 16 15 16 19 23 25 26 26 26 27 27 27 26 26 26
19 20 20 21 21 21 21 21 20 19 18 18 18 17 17 17 16 16 16 15 16 16 16 17 18 17 15 14 14 14 17 21 24 27 28 28 29 29 28 28 28 29
19 20 21 21 21 21 21 20 20 19 18 17 17 17 17 16 15 15 14 14 14 14 15 16 15 13 13 14 13 13 15 18 22 25 28 29 30 30 30 30 30 30
18 19 21 21 21 21 21 20 19 18 17 16 16 16 15 15 15 14 14 13 12 12 12 13 12 12 12 13 13 14 16 18 20 22 25 27 29 30 30 29 28 28
17 19 20 21 21 21 20 19 18 17 15 14 15 15 15 14 13 14 14 12 9 9 10 11 11 11 12 13 13 15 17 19 19 20 22 24 25 26 26 27 26 26
18 19 19 20 21 21 20 18 17 16 14 14 15 15 14 13 12 13 14 11 7 8 10 11 10 10 12 12 12 14 17 18 19 20 20 21 23 24 25 25 25 25
18 19 19 19 20 20 19 17 17 16 14 13 14 14 13 13 12 13 12 10 7 7 10 11 10 10 11 12 13 17 19 18 18 21 21 20 21 21 22 22 23 23
18 18 19 19 19 19 18 17 17 16 15 13 13 14 13 13 13 13 11 8 6 7 10 11 9 9 11 14 17 19 19 17 15 15 15 17 18 18 18 19 19 20
18 18 19 19 19 18 17 17 16 16 15 14 13 13 13 13 12 12 11 8 7 7 9 10 11 11 11 14 18 18 16 18 18 14 11 12 14 15 17 19 19 20
18 18 18 19 19 18 17 16 16 15 15 14 13 12 12 12 10 10 11 9 7 7 8 11 14 14 11 12 18 18 14 16 18 16 15 15 16 14 14 16 19 21
Wind_Direction
302 299 295 299 297 290 290 293 296 299 301 302 303 303 302 301 299 297 296 293 291 289 288 286 284 283 284 283 281 279 277 275 274 272 266 264 269 270 265 260 256 257
304 296 289 288 285 285 289 293 296 298 300 301 301 301 300 299 297 296 294 292 290 288 287 287 285 282 281 280 279 277 277 276 274 274 270 265 266 267 266 262 258 257
303 296 291 288 287 290 292 294 297 299 301 301 300 300 300 300 300 299 298 296 294 292 289 287 284 282 281 279 279 277 277 277 276 276 274 268 264 263 264 262 259 257
303 300 296 292 292 293 294 296 298 300 301 301 302 302 301 302 302 301 301 298 296 293 290 287 284 282 281 278 277 276 276 276 276 276 276 273 268 263 261 261 258 255
303 300 298 296 296 296 295 296 298 300 302 303 305 306 305 305 304 303 302 300 298 295 292 290 288 286 283 280 277 275 274 273 273 274 274 273 272 268 263 261 258 255
302 300 298 297 297 296 294 295 298 301 302 303 305 307 307 307 306 304 303 301 300 298 295 292 288 285 283 281 278 276 274 273 272 272 272 271 271 270 266 262 259 255
301 299 297 295 293 292 292 295 298 299 300 301 302 305 307 307 307 307 305 303 301 299 297 294 289 286 282 279 276 274 273 272 271 270 270 270 270 269 267 264 260 258
301 299 296 292 289 289 292 295 297 297 298 298 300 304 307 307 308 309 307 305 303 300 298 296 293 290 285 279 276 274 272 271 270 269 268 268 268 267 266 265 262 260
301 300 297 292 289 292 295 296 296 297 297 298 300 303 306 308 310 310 309 308 306 304 301 299 297 295 289 283 280 278 275 273 271 269 268 266 265 264 264 264 263 261
301 300 298 295 295 296 296 296 296 296 297 298 300 301 303 307 310 311 311 310 308 306 304 301 300 298 293 287 282 279 277 275 274 271 269 267 265 265 264 263 262 261
301 301 298 298 298 298 297 297 296 296 297 298 299 300 301 304 308 311 311 310 309 307 305 304 304 302 298 293 287 282 278 275 274 273 272 271 269 267 266 265 264 261
301 300 298 299 299 299 300 301 300 299 298 298 297 297 298 301 306 309 309 309 308 306 304 305 306 304 302 300 296 291 285 280 276 273 271 271 271 270 269 268 266 264
301 299 299 300 300 301 302 303 304 302 300 299 297 296 297 298 302 306 307 307 306 303 302 305 307 308 308 306 304 301 296 290 284 278 274 271 271 270 270 269 268 267
301 301 302 303 302 302 302 303 304 302 299 298 297 296 296 297 300 303 304 305 303 299 300 304 308 310 310 307 307 307 304 298 293 287 283 278 275 273 271 270 270 268
301 302 302 302 302 302 303 304 303 301 299 298 297 296 296 296 298 301 303 303 300 295 297 305 308 308 308 307 308 309 308 307 302 295 290 287 283 281 277 274 273 270
300 300 299 300 303 304 304 303 301 299 298 298 297 295 295 296 296 299 303 303 299 293 294 301 304 305 307 308 309 310 307 303 302 300 296 292 288 287 286 283 281 278
299 298 299 301 304 305 304 302 300 299 298 298 297 295 294 296 297 299 303 301 296 292 293 297 301 305 309 312 313 311 300 292 292 295 295 294 291 289 290 290 289 288
299 298 300 302 304 304 303 302 300 299 298 297 295 294 295 297 299 302 304 300 294 292 295 300 305 310 318 321 317 310 298 288 285 287 288 290 291 290 291 292 293 292
300 300 301 302 303 304 303 304 303 299 297 296 294 294 297 299 301 305 307 304 297 296 301 307 312 317 322 321 314 307 297 289 285 283 283 286 289 291 293 294 294 294
302 301 302 302 304 305 304 304 302 297 296 296 294 295 297 298 301 307 312 309 305 307 311 314 320 324 321 319 317 311 300 292 289 284 280 282 285 287 290 292 292 293
303 302 302 303 304 305 304 302 299 296 296 297 296 295 297 298 302 310 317 316 313 320 324 321 326 334 331 326 323 313 300 293 290 284 277 275 276 279 283 286 288 289
305 303 302 303 304 305 305 303 300 297 297 296 296 296 298 299 304 313 318 318 318 335 337 327 328 344 342 332 327 316 303 291 282 276 274 274 274 275 277 280 283 285
306 304 303 303 303 304 306 306 303 300 299 298 297 299 300 302 307 316 320 319 320 342 346 333 332 351 352 347 344 333 320 305 286 275 272 276 281 280 279 280 283 285
308 304 302 301 301 304 307 306 303 300 299 300 299 300 302 305 311 317 320 322 325 339 346 338 336 352 1 2 355 344 340 338 322 298 282 281 286 287 285 285 288 289
308 304 301 300 302 305 305 304 303 299 299 300 299 301 302 304 313 318 316 322 328 330 340 345 341 342 354 2 351 338 347 3 0 352 344 327 315 305 292 285 286 291
307 304 302 302 303 302 301 301 299 297 298 299 299 300 298 301 313 319 314 315 320 325 339 345 338 327 329 351 345 327 334 4 3 357 357 348 335 326 312 296 285 287